www.pogodaiklimat.ru

Погода и климат >> Архив погоды >> Россия >> Приморский край >> Хороль


ПОГОДА в Хороле

  • Прогноз погоды в Хороле
  • Монитор погоды в Хороле

АРХИВ ПОГОДЫ в Хороле

Время (UTC), дата Ветер
(напр.,м/с)
 
Видим.   Явления Облачность Т
(С)
Тd
(С)
f
(%)
Тe
(С)
Тes
(С)
Комфортность P
(гПа)
Po
(гПа)
Тmin
(С)
Tmax
(С)
R
(мм)
R24
(мм)
S
(см)
06 19.06 Ю 2 н/о н/о +24.4 +11.7 45 +26 +26 жарко 1002.4 988.0
09 19.06 СЗ 3 50 км 10/10 600 м
[Cb calv]
+20.6 +13.5 64 +23 +23 комфорт 1001.3 986.7 +25.1
12 19.06 штиль 0 н/о н/о +16.8 +14.6 87 +17 +17 1002.8 988.0
15 19.06 Ю 2 20 км 4 балла +14.8 +12.7 87 +14 +14 1002.9 988.0
18 19.06 Ю 3 н/о н/о +13.8 +12.5 92 +13 +13 1002.9 988.0
21 19.06 Ю 3 20 км 10/0
[Ci sp]
+14.2 +13.1 93 +13 +14 1001.7 986.7 +13.5
00 20.06 Ю 3 н/о н/о +16.2 +13.7 85 +16 +16 1002.2 987.3
03 20.06 Ю 5 50 км гроза без осадков 10 баллов +19.3 +14.8 75 +21 +21 комфорт 1002.6 988.0
06 20.06 ЮЗ 3
{11}
н/о н/о +13.6 +11.5 87 +12 +12 1003.0 988.0
09 20.06 СЗ 3 10 км слаб. ливневой дождь, в посл. час гроза 10/10 300 м
[Cb cap]
+13.5 +12.4 93 +12 +12 1004.3 989.3 +20.4 21
12 20.06 З 2 н/о н/о +12.7 +11.4 92 +12 +12 1005.8 990.7
15 20.06 З 2 50 км 6 баллов +12.1 +10.7 91 +11 +11 1007.1 992.0
18 20.06 ЮЗ 1 н/о н/о +11.6 +10.5 93 +11 +11 1007.1 992.0
21 20.06 СЗ 1 10 км слаб. ливневой дождь 10/10 200 м
[Cb cap]
+13.4 +12.5 94 +13 +13 1006.4 991.3 +10.6 4
00 21.06 С 2 н/о н/о +15.0 +14.1 94 +15 +15 1007.4 992.4
03 21.06 СВ 3 50 км 10 баллов +17.4 +13.7 79 +17 +17 1009.6 994.7
06 21.06 СВ 3 н/о н/о +20.5 +13.2 63 +23 +23 комфорт 1008.0 993.3
09 21.06 С 1 50 км 9/9 600 м
[Sc]
+19.6 +13.5 68 +22 +23 комфорт 1008.0 993.3 +21.3 0.1
12 21.06 СЗ 1 н/о н/о +15.9 +13.9 88 +17 +17 1009.6 994.7
15 21.06 З 1 50 км 4/4 600 м
[Sc]
+15.0 +13.4 90 +15 +15 1009.7 994.7
18 21.06 З 1 н/о н/о +13.8 +12.5 92 +14 +14 1009.7 994.7
21 21.06 СЗ 2 50 км 3/0
[Ci sp]
+15.2 +13.5 90 +15 +16 1009.3 994.3 +13.3
00 22.06 СВ 2 н/о н/о +19.3 +15.5 79 +22 +22 комфорт 1009.2 994.4
03 22.06 СВ 3 50 км 6/6 600 м
[Cu med, cong]
+21.5 +14.4 64 +24 +31 комфорт 1009.3 994.7
06 22.06 СВ 2 н/о н/о +22.9 +13.4 55 +26 +26 жарко 1009.3 994.7
09 22.06 С 1 50 км 8/5 600 м
[Sc diur, vesp Ac trans]
+21.8 +14.9 65 +25 +26 комфорт 1007.9 993.3 +23.3
12 22.06 СЗ 1 н/о н/о +16.9 +15.2 90 +18 +18 1009.6 994.7
15 22.06 З 2 50 км 3/3 600 м
[Sc]
+15.8 +13.3 85 +16 +16 1009.6 994.7
18 22.06 З 1 н/о н/о +14.6 +13.1 91 +15 +15 1009.7 994.7
21 22.06 З 2 50 км в посл. час гроза {ливн. осадки} 8/8 600 м
[Sc]
+15.4 +14.2 93 +15 +15 1008.8 993.8 +14.2 0.1
00 23.06 СВ 2 н/о н/о +20.4 +16.9 80 +24 +24 комфорт 1009.2 994.4
03 23.06 СВ 3 50 км 4/4 600 м
[Cu med, cong]
+22.6 +15.9 66 +27 +37 душно 1010.6 996.0
06 23.06 СВ 3 н/о н/о +23.4 +13.0 52 +26 +26 жарко 1009.3 994.7
09 23.06 С 2 50 км 8/3 600 м
[Cu Sc Ci fib]
+22.9 +12.5 52 +26 +26 жарко 1009.3 994.7 +23.9 0.1
12 23.06 С 1 н/о н/о +17.3 +14.9 86 +18 1010.9 996.0
15 23.06 З 1 50 км 2 балла +15.6 +13.4 87 +16 +16 1011.0 996.0
18 23.06 Ю 1 н/о н/о +14.8 +12.8 88 +15 1012.3 997.3
21 23.06 ЮЗ 2 4000 м дымка 10/10 200 м
[St]
+14.8 +13.7 93 +14 +14 1011.8 996.7 +13.4
00 24.06 Ю 2 н/о н/о +17.8 +15.9 89 +18 +18 1012.2 997.3
03 24.06 ЮЗ 2 50 км 10 баллов +23.7 +16.7 65 +27 +27 жарко 1011.9 997.3
06 24.06 Ю 3 н/о н/о +25.4 +16.3 57 +29 1011.8 997.3
09 24.06 Ю 5 50 км 8/3 600 м
[Cu med, cong Ci sp]
+22.8 +15.4 63 +27 +27 душно 1011.9 997.3 +25.5
12 24.06 Ю 4 н/о н/о +18.1 +14.2 78 +18 1012.2 997.3
15 24.06 Ю 4 50 км ясно +15.8 +13.6 87 +15 +15 1013.7 998.7
18 24.06 Ю 4 н/о н/о +15.2 +13.7 91 +14 1013.7 998.7
21 24.06 Ю 5
{10}
50 км 10/8 200 м
[St Ci sp]
+16.0 +13.9 87 +15 +15 1012.6 997.6 +15.1
00 25.06 Ю 6
{12}
н/о н/о +18.6 +15.5 82 +19 +19 1012.6 997.7
03 25.06 Ю 5 50 км 4 балла +22.8 +17.0 70 +28 +34 душно 1011.9 997.3
06 25.06 Ю 5 н/о н/о +23.1 +17.1 69 +28 1011.9 997.3
09 25.06 Ю 6-10
{13}
50 км 6/0
[Ci sp]
+20.3 +15.9 76 +23 +23 комфорт 1010.7 996.0 +24.2
12 25.06 Ю 7-14
{16}
н/о н/о +18.1 +15.6 85 +18 +18 1010.1 995.3
15 25.06 Ю 5 20 км 7 баллов +17.3 +15.1 87 +17 +17 1010.9 996.0
18 25.06 Ю 4 н/о н/о +17.0 +15.3 90 +17 1010.9 996.0
21 25.06 Ю 5
{10}
50 км 10/10 200 м
[St]
+17.3 +15.4 89 +17 +17 1009.0 994.1 +17.0
00 26.06 ЮЗ 5
{11}
н/о н/о +19.8 +16.9 83 +22 +22 комфорт 1008.0 993.2

 

Местоположение метеостанции Хороль (Приморский край, Россия): широта 44.43 долгота 132.00 высота над уровнем моря 127 м.

В архиве по умолчанию представлена погода в Хороле за последнюю неделю. Архивные данные за месяц целиком и за предыдущие месяцы, начиная с января 2011 года, Вы можете получить, выбрав интересующий диапазон дат из раскрывающегося списка и нажав кнопку "Ввод!".


*Определитесь, кто Вы:
робот инопланетянин человек

Внимание! Время в таблицах - всемирное. Для получения местного времени необходимо прибавить поправку, которая равна 10 ч.

Смотрите также архив погоды в соседних городах и на ближайших метеорологических станциях:

Погода в Астраханке (Приморский край, Россия) (32 км)
Погода в Пограничном (Приморский край, Россия) (56 км)
Погода в Тимирязевском (Приморский край, Россия) (62 км)
Погода в Спасск-Дальнем (Приморский край, Россия) (67 км)
Погода в Суйфэньхэ (Хэйлунцзян, Китай) (68 км)
Погода в Полтавке (Приморский край, Россия) (71 км)
Погода в Турьем Роге (Приморский край, Россия) (87 км)
Погода в Свиягино (Приморский край, Россия) (89 км)
Погода в Анучино (Приморский край, Россия) (95 км)
Погода в Многоудобном (Приморский край, Россия) (113 км)

Пояснения к столбцам:

Ветер - указаны скорость ветра в м/с - средняя за 10 мин, порывы в срок и между сроками (в фигурных скобках) и направление, откуда дует ветер: С - северный, СВ - северо-восточный, В - восточный, ЮВ - юго-восточный, Ю - южный, ЮЗ - юго-западный, З - западный, СЗ - северо-западный.
Видимость - горизонтальная дальность видимости в метрах или километрах. При видимости от 1 до 10 км при отсутствии осадков обычно наблюдается дымка, при ухудшении видимости до 1 км и менее - туман. В сухую погоду видимость может ухудшаться дымом, пылью или мглою.
Явления - указаны атмосферные явления, наблюдавшиеся в срок или в последний час перед сроком; фигурными скобками обозначены явления, наблюдавшиеся между сроками (за 1-3 часа до срока); квадратными скобками обозначены град или гололедные отложения с указанием их диаметра в мм.
Облачность - указаны через наклонную черту общая и нижняя облачность в баллах и высота нижней границы облаков в метрах; квадратными скобками обозначены формы облаков: Ci - перистые, Cs - перисто-слоистые, Cc - перисто-кучевые, Ac - высококучевые, As - высокослоистые, Sc - слоисто-кучевые, Ns - слоисто-дождевые, Cu - кучевые, Cb - кучево-дождевые. Подробнее классификацию облаков см. в Атласе облаков (PDF).
T - Температура воздуха - температура, измеренная на высоте 2 м над землей.
Td - Температура точки росы - температура, при понижении до которой содержащийся в воздухе водяной пар достигнет насыщения.
f - Относительная влажность воздуха - влажноcть воздуха, измеренная на высоте 2 м над землей.
Te - Эффективная температура - температура, которую ощущает одетый по сезону человек в тени. Характеристика душности погоды. При расчете учитывается влияние влажности воздуха и скорости ветра на теплоощущения человека.
Tes - Эффективная температура на солнце - температура, которую ощущает человек, с поправкой на солнечный нагрев. Характеристика знойности погоды. Зависит от высоты солнца над горизонтом, облачности и скорости ветра. Ночью, в пасмурную погоду, а также при ветре 12 м/с и более поправка равна нулю.
P - Атмосферное давление - приведенное к уровню моря атмосферное давление.
Po - Атмосферное давление - измеренное на уровне метеостанции атмосферное давление.
Tmin - Минимальная температура - минимум температуры воздуха на высоте 2 м над землей.
Tmax - Максимальная температура - максимум температуры воздуха на высоте 2 м над землей.
R - Количество осадков - Количество выпавших осадков за период времени, мм. При наведении курсора мыши на число - период времени, за который выпало указанное количество осадков.
R24 - Количество осадков - Количество выпавших осадков за 24 часа, мм.
S - Снежный покров - Высота снежного покрова, см. При наведении курсора мыши на число - состояние снежного покрова и степень покрытия местности в баллах.